FW6369 Weather Reports


Display with metric or nautical units.
time (UTC)temp
F
wind
direction
speed
MPH
gust
MPH
rain 1hr
in
rain 24hr
in
rain mn
in
humidity
%
barometer
mb
20260831021554 72 0 0.0 1.0 0.00 0.00 0.00 57 1011.1
20260831020059 74 106 0.0 1.0 0.00 0.00 0.00 55 1011.2
20260831014558 76 0 0.0 1.0 0.00 0.00 0.00 52 1011.4
20260831013112 77 88 0.0 2.0 0.00 0.00 0.00 51 1011.4
20260831011605 78 132 0.0 2.0 0.00 0.00 0.00 50 1011.3
20260831010100 79 77 0.0 3.0 0.00 0.00 0.00 48 1011.3
20260831004559 80 89 0.0 2.0 0.00 0.00 0.00 47 1011.3
20260831003100 81 291 0.0 2.0 0.00 0.00 0.00 46 1011.3
20260831001552 82 9 0.0 2.0 0.00 0.00 0.00 46 1011.3
20260830234605 82 118 0.0 8.0 0.00 0.00 0.00 47 1011.3
20260830233055 83 0 0.0 6.0 0.00 0.00 0.00 47 1011.2
20260830231557 83 302 0.0 3.0 0.00 0.00 0.00 46 1011.3
20260830230056 84 246 0.0 3.0 0.00 0.00 0.00 47 1011.3
20260830224600 84 315 0.0 2.0 0.00 0.00 0.00 47 1011.3
20260830223102 82 315 0.0 2.0 0.00 0.00 0.00 48 1011.5
20260830221600 82 261 1.0 4.0 0.00 0.00 0.00 49 1011.6
20260830220106 82 222 0.0 9.0 0.00 0.00 0.00 48 1011.8
20260830214602 82 229 2.0 7.0 0.00 0.00 0.00 49 1012.0
20260830213117 83 332 0.0 3.0 0.00 0.00 0.00 48 1012.2
20260830211555 82 322 0.0 2.0 0.00 0.00 0.00 50 1012.5
20260830210101 80 308 1.0 2.0 0.00 0.00 0.00 50 1012.6
20260830204601 80 0 0.0 2.0 0.00 0.00 0.00 51 1012.7
20260830203118 79 329 0.0 4.0 0.00 0.00 0.00 53 1012.8
20260830201618 78 80 1.0 7.0 0.00 0.00 0.00 53 1012.9
20260830200057 78 178 0.0 3.0 0.00 0.00 0.00 52 1013.1
20260830194555 78 178 0.0 1.0 0.00 0.00 0.00 54 1013.3
20260830193100 77 0 0.0 2.0 0.00 0.00 0.00 55 1013.5
20260830191601 76 0 0.0 2.0 0.00 0.00 0.00 56 1013.7
20260830190057 75 184 0.0 2.0 0.00 0.00 0.00 57 1013.8
20260830184554 75 178 0.0 0.0 0.00 0.00 0.00 57 1013.9
20260830183108 73 0 0.0 3.0 0.00 0.00 0.00 59 1013.9
20260830181601 72 178 0.0 2.0 0.00 0.00 0.00 61 1014.1
20260830180106 71 0 0.0 3.0 0.00 0.00 0.00 62 1014.1
20260830174617 73 125 0.0 1.0 0.00 0.00 0.00 60 1014.1
20260830173112 71 171 0.0 1.0 0.00 0.00 0.00 64 1014.1
20260830171614 70 173 0.0 2.0 0.00 0.00 0.00 67 1014.0
20260830170100 69 0 0.0 1.0 0.00 0.00 0.00 67 1014.1
20260830164618 69 0 0.0 1.0 0.00 0.00 0.00 67 1014.1
20260830163111 67 0 0.0 0.0 0.00 0.00 0.00 69 1014.2
20260830161559 67 0 0.0 0.0 0.00 0.00 0.00 70 1014.3
20260830160058 62 0 0.0 0.0 0.00 0.00 0.00 75 1014.4
20260830154601 62 0 0.0 0.0 0.00 0.00 0.00 74 1014.4
20260830153100 60 0 0.0 0.0 0.00 0.00 0.00 78 1014.5
20260830151555 59 0 0.0 1.0 0.00 0.00 0.00 78 1014.2
20260830144604 52 0 0.0 0.0 0.00 0.00 0.00 88 1014.2
20260830143120 49 0 0.0 0.0 0.00 0.00 0.00 91 1014.1
20260830141553 48 0 0.0 1.0 0.00 0.00 0.00 91 1013.9
20260830140104 48 0 0.0 1.0 0.00 0.00 0.00 90 1013.8
20260830134555 48 0 0.0 1.0 0.00 0.00 0.00 91 1013.6
20260830133138 48 0 0.0 0.0 0.00 0.00 0.00 91 1013.3
20260830131613 48 0 0.0 0.0 0.00 0.00 0.00 91 1013.2
20260830130100 48 0 0.0 1.0 0.00 0.00 0.00 91 1013.1
20260830124610 48 0 0.0 1.0 0.00 0.00 0.00 91 1013.0
20260830123058 48 0 0.0 0.0 0.00 0.00 0.00 91 1012.9
20260830121558 48 0 0.0 0.0 0.00 0.00 0.00 90 1012.9
20260830120100 49 0 0.0 0.0 0.00 0.00 0.00 90 1012.8
20260830114627 49 0 0.0 1.0 0.00 0.00 0.00 90 1012.8
20260830113107 49 0 0.0 0.0 0.00 0.00 0.00 90 1012.8
20260830111558 49 0 0.0 0.0 0.00 0.00 0.00 90 1012.8
20260830110059 49 0 0.0 0.0 0.00 0.00 0.00 90 1012.8
20260830104602 50 0 0.0 0.0 0.00 0.00 0.00 90 1012.7
20260830103103 50 0 0.0 0.0 0.00 0.00 0.00 89 1012.8
20260830101601 50 0 0.0 0.0 0.00 0.00 0.00 88 1012.9
20260830094600 51 0 0.0 0.0 0.00 0.00 0.00 87 1012.8
20260830093056 51 0 0.0 0.0 0.00 0.00 0.00 87 1012.8
20260830091558 52 0 0.0 0.0 0.00 0.00 0.00 87 1012.8
20260830090106 52 0 0.0 0.0 0.00 0.00 0.00 86 1012.7
20260830084603 53 0 0.0 0.0 0.00 0.00 0.00 85 1012.7
20260830083108 53 0 0.0 1.0 0.00 0.00 0.00 84 1012.8
20260830081602 54 0 0.0 1.0 0.00 0.00 0.00 84 1012.7
20260830080103 54 0 0.0 1.0 0.00 0.00 0.00 84 1012.8
20260830074557 54 0 0.0 1.0 0.00 0.00 0.00 84 1012.9
20260830073102 54 0 0.0 1.0 0.00 0.00 0.00 83 1012.9
20260830071603 55 0 0.0 1.0 0.00 0.00 0.00 82 1012.9
20260830070109 56 0 0.0 0.0 0.00 0.00 0.00 81 1012.9
20260830064558 56 0 0.0 0.0 0.00 0.00 0.00 81 1012.8
20260830063055 57 0 0.0 1.0 0.00 0.00 0.00 79 1012.8
20260830061608 57 0 0.0 0.0 0.00 0.00 0.00 78 1012.8
20260830054556 59 0 0.0 0.0 0.00 0.00 0.00 77 1012.9
20260830053055 60 0 0.0 0.0 0.00 0.00 0.00 76 1012.9
20260830051600 60 0 0.0 0.0 0.00 0.00 0.00 74 1012.9
20260830044559 63 0 0.0 0.0 0.00 0.00 0.00 71 1012.9
20260830043056 64 0 0.0 0.0 0.00 0.00 0.00 68 1012.8
20260830041559 65 0 0.0 0.0 0.00 0.00 0.00 66 1012.7
20260830040101 67 0 0.0 0.0 0.00 0.00 0.00 64 1012.4
20260830034623 67 0 0.0 0.0 0.00 0.00 0.00 62 1012.2
20260830033059 69 0 0.0 0.0 0.00 0.00 0.00 60 1012.0
20260830031559 70 0 0.0 0.0 0.00 0.00 0.00 59 1011.8
20260830030100 71 0 0.0 0.0 0.00 0.00 0.00 57 1011.8
20260830024556 73 0 0.0 0.0 0.00 0.00 0.00 56 1011.7
20260830023057 75 0 0.0 0.0 0.00 0.00 0.00 54 1011.7